EHI
0 0 0 0 0 0 0 0 0 0 0 0 0 0 0 0 0 0 0 0 0 0 0 0 0 0 0 0 1 4 15 38 63 72 61 38 17 6 3 2 1 0 0 0
0 0 0 0 0 0 0 0 0 0 0 0 0 0 0 0 0 0 0 0 0 0 0 0 0 0 0 0 0 3 12 33 57 69 60 40 20 10 7 5 2 0 0 0
0 0 0 0 0 0 0 0 0 0 0 0 0 0 0 0 0 0 0 0 0 0 0 0 0 0 0 0 0 1 6 21 42 55 55 42 28 17 12 9 4 1 0 0
0 0 0 0 0 0 0 0 0 0 0 0 0 0 0 0 0 0 0 0 0 0 0 0 0 0 0 0 0 0 2 10 21 32 36 35 28 18 13 10 6 2 0 0
0 0 0 0 0 0 0 0 0 0 0 0 0 0 0 0 0 0 0 0 0 0 0 0 0 0 0 0 0 0 0 3 7 11 15 18 17 12 9 8 7 6 5 4
0 0 0 0 0 0 0 0 0 0 0 0 0 0 0 0 0 0 0 0 0 0 0 0 0 0 0 0 0 0 0 0 1 2 3 5 5 6 5 4 5 9 11 11
0 0 0 0 0 0 0 0 0 0 0 0 0 0 0 0 0 0 0 0 0 0 0 0 0 0 0 0 0 0 0 0 0 0 0 0 1 1 2 2 2 6 10 12
0 0 0 0 0 0 0 0 0 0 0 0 0 0 0 0 0 0 0 0 0 0 0 0 0 0 0 0 0 0 1 1 0 0 0 0 0 0 0 0 0 1 4 5
0 0 0 0 0 0 0 0 0 0 0 0 0 0 0 0 0 0 0 0 0 0 0 0 0 0 0 0 1 2 3 4 2 0 0 0 0 0 0 0 0 0 1 2
0 0 0 0 0 0 0 0 0 0 0 0 0 0 0 0 0 0 0 0 0 0 0 0 0 0 0 2 5 9 11 10 5 2 0 0 0 0 0 0 0 0 0 1
0 0 0 0 0 0 0 0 0 0 0 0 0 0 0 0 0 0 0 0 0 0 0 0 0 0 1 5 15 23 25 21 15 8 3 0 0 0 0 0 0 0 0 0
0 0 0 0 0 0 0 0 0 0 0 0 0 0 0 0 0 0 0 0 0 0 0 0 0 0 2 10 25 36 37 34 29 21 11 4 1 0 0 0 0 0 0 0
0 0 0 0 0 0 0 0 0 0 0 0 0 0 0 0 0 0 0 0 0 0 0 0 0 1 3 12 27 40 45 44 41 34 23 13 7 3 1 0 0 0 0 0
0 0 0 0 0 0 0 0 0 0 0 0 0 0 0 0 0 0 0 0 0 0 0 0 0 1 3 9 23 41 51 53 49 40 31 25 17 10 6 2 0 0 0 0
0 0 0 0 0 0 0 0 0 0 0 0 0 0 0 0 0 0 0 0 0 0 0 0 0 0 1 6 22 43 58 59 49 38 38 41 37 27 17 8 2 1 0 0
0 0 0 0 0 0 0 0 0 0 0 0 0 0 0 0 0 0 0 0 0 0 0 0 0 0 1 9 26 46 60 60 47 38 47 60 59 49 35 19 10 7 3 1
0 0 0 0 0 0 0 0 0 0 0 0 0 0 0 0 0 0 0 0 0 0 0 0 0 2 6 16 32 47 58 58 51 51 64 73 72 65 51 33 23 18 9 4
0 0 0 0 0 0 0 0 0 0 0 0 0 0 0 0 0 0 0 0 0 0 0 0 1 4 9 18 30 41 47 48 52 61 71 74 72 69 59 44 34 25 13 8
0 0 0 0 0 0 0 0 0 0 0 0 0 0 0 0 0 0 0 0 0 0 0 0 0 2 6 11 16 22 26 29 36 45 52 55 57 60 55 44 33 23 16 12
0 0 0 0 0 0 0 0 0 0 0 0 0 0 0 0 0 0 0 0 0 0 0 0 0 0 1 3 4 5 7 10 14 19 21 24 30 37 38 33 26 20 16 15
0 0 0 0 0 0 0 0 0 0 0 0 0 0 0 0 0 0 0 0 0 0 0 0 0 0 0 0 0 0 0 1 2 3 3 4 9 14 17 19 16 12 10 11
0 0 0 0 0 0 0 0 0 0 0 0 0 0 0 0 0 0 0 0 0 0 0 0 0 0 0 0 0 0 0 0 0 0 0 0 1 2 4 6 5 4 3 4
0 0 0 0 0 0 0 0 0 0 0 0 0 0 0 0 0 0 0 0 0 0 0 0 0 0 0 0 0 0 0 0 0 0 0 0 0 0 0 0 0 0 1 2
0 0 0 0 0 0 0 0 0 0 0 0 0 0 0 0 0 0 0 0 0 0 0 0 0 0 0 0 0 0 0 0 0 0 0 0 0 0 0 0 0 0 0 1
0 0 0 0 0 0 0 0 0 0 0 0 0 0 0 0 0 0 0 0 0 0 0 0 0 0 0 0 0 0 0 0 0 0 0 0 0 0 0 0 0 0 0 0
0 0 0 0 0 0 0 0 0 0 0 0 0 0 0 0 0 0 0 0 0 0 0 0 0 0 0 0 0 0 0 0 0 0 0 0 0 0 0 0 0 0 0 0
Wind_Speed
1 4 5 6 7 9 8 10 12 7 2 6 9 11 11 10 9 11 12 12 12 11 6 4 4 5 6 7 9 10 11 11 10 9 8 8 8 7 7 7 9 10 10 11
3 4 4 3 4 6 8 11 11 7 4 6 11 15 14 13 14 13 12 11 10 8 7 7 5 5 3 3 5 6 9 9 10 9 8 6 6 7 7 6 8 10 11 11
5 3 1 4 5 7 8 8 8 7 5 5 9 13 15 15 13 11 11 9 8 8 9 8 6 5 4 4 3 3 5 7 9 9 7 5 5 4 6 8 7 9 10 11
4 2 4 6 7 7 6 3 5 5 5 5 4 9 10 11 12 12 11 9 9 9 9 8 7 5 5 4 4 4 4 5 7 9 8 9 7 7 8 6 7 8 10 10
4 4 6 8 8 6 3 2 3 4 6 7 8 10 9 9 10 9 6 7 10 12 11 10 7 6 5 5 4 4 5 6 7 8 8 8 7 6 5 5 7 8 8 10
8 6 8 8 6 7 5 1 2 4 4 9 10 10 9 6 5 4 2 6 11 12 11 9 8 6 5 5 5 5 5 5 6 7 8 8 7 7 7 7 7 7 6 7
7 7 6 5 5 7 9 5 3 4 5 6 4 7 7 4 4 6 4 7 12 12 11 10 9 8 7 6 5 5 6 6 6 6 7 7 7 7 8 7 7 7 6 6
8 6 3 4 6 6 10 10 7 5 4 3 5 7 4 3 5 5 4 8 11 12 10 10 9 8 7 7 7 6 6 6 6 6 5 5 6 5 5 7 6 6 6 6
8 7 2 3 6 8 8 10 10 11 11 9 7 5 6 5 2 0 4 8 11 11 10 10 9 9 8 9 9 8 7 7 7 7 6 5 6 6 6 6 6 5 5 5
8 12 9 5 5 5 6 6 5 8 7 9 7 7 5 3 4 1 3 6 8 8 9 9 9 9 9 9 9 9 9 8 8 7 6 5 6 6 6 5 6 6 6 6
7 10 10 7 5 4 4 5 7 6 6 6 4 2 4 5 6 5 3 2 3 5 6 7 8 9 9 9 10 10 10 10 9 8 8 7 7 6 6 6 6 6 6 6
6 7 10 8 2 2 3 3 5 6 6 4 4 3 3 4 6 7 8 8 7 7 7 6 7 8 9 10 11 11 11 11 9 8 8 7 6 7 7 7 6 6 6 7
7 7 8 5 4 2 1 1 3 5 6 6 6 4 2 5 8 9 10 10 9 8 8 7 7 7 8 9 10 11 11 11 10 9 9 8 8 8 7 7 7 7 7 8
6 7 7 7 6 4 4 4 6 7 6 7 8 9 8 11 14 15 14 13 12 10 9 8 7 6 7 8 9 10 10 10 9 10 9 8 8 8 8 7 7 8 8 8
7 8 7 9 9 7 9 10 10 11 9 8 9 11 11 15 17 18 16 15 13 12 10 9 8 6 5 7 8 8 9 9 10 10 9 9 8 7 7 7 8 8 8 8
7 7 9 10 9 9 11 10 9 7 6 6 8 9 14 19 17 15 14 12 11 10 9 7 6 5 4 5 6 7 8 8 8 9 8 7 7 7 7 8 8 8 8 8
7 7 7 8 9 11 5 4 4 9 12 9 9 13 19 20 18 13 11 10 8 7 5 3 2 2 1 3 5 6 6 6 6 7 6 6 7 8 8 8 8 8 9 9
10 9 5 7 8 4 7 10 8 9 15 15 13 15 17 20 14 8 12 11 8 5 4 5 6 7 6 6 6 5 5 4 4 4 5 5 6 7 7 8 9 9 8 8
6 6 4 4 6 3 7 12 13 5 7 18 19 20 22 23 7 10 18 15 9 7 7 8 8 9 9 9 8 7 6 4 2 0 2 4 5 6 7 8 9 8 8 9
1 3 3 4 5 2 11 20 18 7 2 20 22 22 23 22 12 12 18 13 7 6 7 7 8 10 10 9 8 8 8 7 6 4 2 2 3 5 6 7 7 7 7 8
8 5 4 5 4 6 13 20 13 4 10 19 20 20 19 17 13 16 15 6 4 5 5 6 8 9 9 8 8 9 9 8 7 5 5 3 1 2 3 4 5 6 6 7
9 8 7 7 5 6 15 14 10 9 14 18 19 19 19 19 18 14 9 2 2 3 4 5 7 8 7 7 8 9 8 6 5 5 5 5 4 2 1 2 3 4 6 7
7 7 5 5 3 5 8 6 7 10 16 18 20 20 20 20 18 14 7 1 3 3 3 4 6 7 6 6 6 7 6 4 5 5 5 5 4 4 3 2 2 3 4 4
5 7 6 6 4 9 8 7 11 14 17 19 19 20 19 19 18 14 7 3 4 4 4 4 4 5 5 4 4 5 4 3 4 5 5 4 4 4 4 3 1 1 2 3
5 6 7 8 9 11 8 14 15 16 18 19 20 19 18 18 17 14 8 4 5 5 5 4 4 3 3 2 2 2 2 3 4 4 4 4 4 4 4 5 5 3 3 2
2 5 6 7 11 12 15 15 16 16 17 18 20 20 18 16 15 13 8 4 5 6 6 5 5 4 2 1 0 1 1 3 4 4 4 3 3 3 3 3 5 10 8 7
Wind_Direction
215 241 251 267 258 267 270 257 255 252 302 279 262 267 274 280 277 269 263 256 245 234 212 196 196 203 213 219 226 222 218 207 191 183 185 189 196 196 199 205 208 203 208 204
239 259 296 296 267 252 247 250 255 255 284 285 280 279 278 277 276 275 273 266 247 224 196 178 175 168 174 188 214 216 212 207 197 191 189 193 196 199 198 200 209 207 208 207
268 303 263 230 235 246 253 262 271 279 301 272 288 277 266 263 263 261 258 259 248 212 194 171 166 155 149 148 164 189 201 200 197 190 184 178 179 191 195 200 202 208 211 209
264 255 227 242 248 255 264 297 291 292 284 281 270 284 271 266 262 256 251 233 214 193 181 168 168 160 148 130 136 159 168 183 188 186 189 191 196 204 209 202 195 198 207 209
253 228 232 245 247 228 250 359 328 302 286 278 253 267 276 261 260 260 245 215 192 181 176 171 170 156 143 134 137 141 148 164 179 191 195 207 216 221 214 205 200 200 204 210
267 245 244 248 235 207 169 130 300 267 263 260 250 247 272 255 268 289 246 189 179 175 177 174 166 162 157 149 148 147 152 153 172 189 199 209 213 210 208 207 205 200 196 203
270 241 216 227 212 184 193 202 237 232 218 245 240 248 263 295 304 295 270 188 176 177 181 183 181 183 183 179 171 163 159 159 170 190 201 202 206 212 214 214 210 204 198 200
286 275 186 202 238 229 212 218 231 256 254 238 198 243 266 310 306 297 245 188 178 184 190 194 196 195 196 195 189 183 175 168 169 184 193 203 192 209 216 218 216 211 210 210
301 287 268 264 272 256 231 223 239 261 268 270 245 237 268 266 282 283 174 179 187 194 199 204 204 204 206 204 200 195 187 181 177 181 181 195 199 205 209 214 213 216 219 209
305 294 290 296 247 215 265 277 230 234 251 249 244 241 251 290 338 351 176 184 193 205 211 213 212 211 212 210 204 197 195 191 186 184 183 184 200 205 216 214 212 212 213 205
288 282 282 270 272 275 220 219 246 250 262 268 258 186 45 9 4 353 334 276 247 238 235 227 220 217 213 208 201 196 195 196 191 191 188 188 194 198 207 214 215 212 209 204
302 284 275 271 318 288 264 259 241 251 248 263 280 270 26 352 353 351 340 330 311 291 273 255 239 226 217 211 203 198 196 194 191 193 192 193 192 194 206 208 207 207 205 204
315 290 288 247 186 194 193 217 256 265 262 247 248 257 60 314 318 323 319 313 304 291 277 263 245 235 228 219 208 200 196 193 187 187 192 192 196 199 204 208 206 208 207 206
303 272 271 286 314 324 303 280 262 255 257 263 262 285 298 314 320 316 311 306 298 288 277 269 261 247 237 230 214 202 192 187 183 187 192 197 200 201 206 207 205 210 210 211
329 300 307 300 300 291 283 278 266 255 262 274 294 302 319 335 324 310 301 295 291 281 276 272 267 262 241 223 208 195 187 183 184 190 195 199 200 200 208 209 209 211 215 221
328 307 314 301 299 293 279 278 271 265 286 301 313 319 347 328 317 308 303 299 293 288 285 284 281 272 245 208 190 181 184 185 191 197 201 196 203 198 205 210 213 207 208 217
296 297 306 295 300 291 252 31 52 79 53 25 6 344 333 328 328 332 332 322 314 313 319 326 340 8 78 141 162 168 174 176 197 204 202 202 208 203 205 207 209 206 206 210
271 283 278 287 287 239 88 51 37 101 66 35 9 349 340 330 318 10 8 349 345 7 43 69 77 80 83 94 104 113 126 158 192 211 218 215 218 211 206 206 207 209 209 205
239 266 273 279 281 259 75 17 351 311 68 23 2 353 349 339 327 45 21 8 10 43 71 79 83 84 79 77 83 92 95 96 97 217 258 241 226 218 209 207 207 208 207 204
167 231 268 285 282 33 13 340 323 271 88 10 355 351 350 350 359 358 351 355 27 62 78 86 87 84 78 75 78 81 77 72 60 40 7 306 249 231 221 215 208 204 207 207
350 334 318 307 289 72 4 343 350 42 359 340 341 343 344 343 327 316 325 350 47 70 77 85 85 81 78 79 80 76 69 60 49 41 37 33 11 257 233 216 201 197 203 206
356 358 4 350 350 15 353 1 13 341 325 330 333 334 334 328 325 329 334 2 97 97 90 92 95 90 83 77 77 75 66 56 48 42 40 36 32 25 82 173 188 196 197 201
11 5 337 336 327 299 326 336 336 328 322 325 325 327 328 326 329 332 328 213 151 134 121 117 114 107 96 76 64 71 68 48 42 41 39 33 33 42 46 91 153 178 189 195
353 350 328 324 335 338 331 342 339 329 319 317 318 320 322 324 326 327 315 225 184 169 158 156 148 130 111 90 67 61 56 37 30 35 32 34 31 45 54 48 66 151 180 193
328 334 328 315 334 332 323 332 330 324 319 318 318 317 318 320 322 324 308 240 200 181 178 184 184 159 133 117 74 60 32 4 14 26 34 41 44 46 50 53 32 16 42 21
332 326 322 313 323 314 310 321 324 321 318 317 316 315 317 317 319 323 313 255 205 191 183 191 202 206 198 205 300 84 39 343 357 19 27 36 52 64 70 83 78 49 48 55